Location: Ocean City
(38.3360°N, 75.0850°W)
Time: 16:25:22
(UTC-05:00)

Explorer 11/Cluster Stage 4 - Pass Details

Date: 19 November 2019
Orbit: 467 x 1259 km, 28.8° (Epoch: 12 December)

Event Time Altitude Azimuth Distance (km) Brightness Sun altitude
Rises 19:55:20 0° 236° (SW) 3,144 10.3 -37.1°
Reaches altitude 10° 19:57:50 10° 225° (SW) 2,348 9.4 -37.6°
Enters shadow 19:58:46 15° 219° (SW) 2,091 9.0 -37.8°
Maximum altitude 20:02:43 30° 166° (SSE) 1,573 - -38.6°
Drops below altitude 10° 20:08:33 10° 108° (ESE) 2,846 - -39.7°
Sets 20:11:53 0° 99° (E) 3,927 - -40.4°
